Location: Unspecified
(0.0000°N, 0.0000°E)
Time: 06:21:57
(UTC+00:00)

Vanguard 2 - Pass Details

Date: 22 September 2019
Orbit: 554 x 2937 km, 32.9° (Epoch: 14 October)

Event Time Altitude Azimuth Distance (km) Brightness Sun altitude
Rises 12:16:47 0° 275° (W) 2,715 10.4 84.0°
Reaches altitude 10° 12:19:22 10° 256° (WSW) 1,879 9.8 83.4°
Maximum altitude 12:22:25 20° 207° (SSW) 1,495 9.4 82.6°
Drops below altitude 10° 12:26:05 10° 160° (SSE) 2,297 10.1 81.7°
Sets 12:29:41 0° 144° (SE) 3,572 10.9 80.8°
